Wind_Speed
19 18 18 19 20 24 27 28 30 31 35 41 44 47 53 58 60 62 67 72 75 84 88 88 87 87 88 91 92 85 79 80 82 81 83 84 84 84 84 85 86 87 83 80
20 21 22 24 26 27 27 31 35 39 44 50 55 58 63 68 71 76 79 83 88 92 95 100 98 97 96 93 92 91 86 84 84 82 82 83 81 81 83 84 84 85 87 86
23 26 26 26 27 30 37 37 42 47 50 54 59 62 72 74 78 82 86 87 94 98 102 104 98 91 88 87 83 82 80 77 75 75 75 74 74 73 75 77 80 80 81 83
23 24 25 28 32 37 42 45 49 52 54 58 65 69 79 83 88 92 94 97 101 102 99 95 86 80 77 75 74 71 69 67 66 65 65 66 65 65 67 69 71 74 73 74
28 29 31 36 39 42 46 47 50 58 65 72 78 78 80 92 94 100 98 101 98 94 85 77 70 69 67 66 64 59 59 58 57 57 57 57 58 58 58 59 61 63 65 67
30 33 37 40 46 50 51 56 62 66 70 79 77 80 81 86 97 91 85 85 82 70 66 65 63 60 57 56 56 53 51 51 52 52 54 56 55 55 54 53 52 53 53 55
39 39 38 43 49 54 59 63 66 70 76 73 81 88 90 89 84 85 92 84 69 64 61 58 55 52 49 47 46 44 44 45 45 45 45 46 48 49 49 46 45 42 45 46
38 43 45 51 54 57 60 65 72 77 78 81 81 89 83 74 74 85 80 69 66 60 57 53 47 43 41 38 36 37 37 36 35 35 36 37 39 37 34 33 31 31 36 38
40 45 47 49 53 60 67 72 77 81 83 90 94 88 70 63 68 66 65 62 59 51 47 42 36 34 34 35 37 38 38 37 36 34 33 33 35 35 28 29 27 29 33 34
43 50 53 57 59 66 72 76 80 80 84 89 90 89 63 45 55 62 60 57 51 43 35 31 29 30 33 36 37 37 36 36 37 36 33 33 35 30 28 26 29 29 28 29
48 49 55 59 66 70 74 80 84 86 88 85 83 81 65 59 54 56 50 47 41 34 30 28 28 33 36 37 38 36 36 34 32 32 32 32 29 25 27 27 22 23 27 23
48 55 61 64 70 74 82 88 89 89 88 83 73 75 54 46 48 47 45 36 31 29 31 27 30 33 38 42 43 39 33 31 29 29 27 27 24 22 25 20 21 17 21 24
56 61 66 70 75 80 86 88 83 81 77 74 65 64 48 43 42 41 32 31 29 29 26 28 31 35 41 45 46 42 32 28 27 27 24 23 19 22 21 19 20 14 15 19
58 61 67 74 80 87 89 89 85 78 71 68 59 60 49 39 37 30 29 29 28 28 28 28 32 38 43 47 49 41 35 29 26 26 22 19 15 16 17 20 11 8 17 19
61 65 73 79 83 88 94 94 86 80 73 61 52 55 37 31 29 28 27 29 29 30 26 28 33 39 44 49 50 36 33 32 26 24 20 16 13 13 14 14 3 11 12 15
64 71 76 81 86 93 91 87 84 73 65 57 52 48 32 27 31 26 32 30 29 28 27 29 35 41 47 52 43 33 30 29 26 22 18 13 12 11 12 5 6 10 10 13
68 75 79 82 86 89 85 82 74 68 60 51 42 36 32 31 28 30 28 28 29 27 28 32 39 44 50 50 38 32 29 26 23 22 16 11 12 7 3 5 12 9 12 19
72 79 83 84 87 84 73 74 68 62 52 41 38 34 30 32 25 24 27 29 29 27 30 36 42 47 52 41 34 29 25 23 18 19 12 14 13 4 8 11 10 9 13 14
75 79 80 83 87 82 72 71 62 53 37 36 29 18 20 18 16 18 24 25 26 27 33 40 46 51 45 35 30 25 22 21 12 13 11 17 12 6 11 11 9 11 12 9
75 79 82 85 78 76 65 59 48 45 37 30 27 24 17 19 17 18 21 22 22 30 38 44 49 47 36 29 26 21 19 14 12 12 19 18 11 13 11 11 11 14 14 11
76 77 78 77 70 62 55 52 44 41 36 24 25 21 19 21 21 22 18 20 28 36 42 47 46 36 23 23 21 21 18 7 13 13 26 19 15 16 13 12 12 14 13 12
74 74 74 69 62 48 44 44 42 38 32 29 21 13 12 15 20 23 20 27 33 39 44 44 34 23 20 23 18 17 14 10 15 18 24 20 21 17 16 14 14 16 18 18
71 71 66 62 49 37 37 40 38 35 30 20 10 7 10 16 20 18 24 32 37 43 45 36 24 24 26 22 22 11 6 19 20 22 24 25 23 21 17 16 18 21 19 15
69 66 59 51 43 34 33 36 32 29 17 8 8 12 15 15 16 22 31 36 42 43 35 26 25 28 27 27 18 6 15 21 23 28 29 29 25 22 19 20 20 20 17 17
65 61 55 38 35 31 27 28 25 12 7 12 16 16 11 14 21 30 35 41 43 36 28 26 23 30 27 13 1 13 25 26 27 30 32 29 24 23 21 21 21 19 17 13
59 53 43 30 27 30 28 22 12 3 8 15 17 14 14 19 28 33 38 44 38 26 26 23 22 30 17 8 9 27 27 25 31 34 33 28 25 25 23 25 24 22 24 30
Wind_Direction
311 312 311 307 306 306 308 310 308 307 308 308 310 310 311 308 306 304 304 306 310 316 314 310 305 301 296 294 294 293 286 277 275 272 272 270 268 268 267 266 265 264 263 262
316 316 314 313 313 311 311 312 312 311 313 312 310 309 308 307 307 308 308 309 312 311 311 312 308 303 301 299 294 290 285 280 277 273 270 266 265 264 263 264 264 264 263 262
315 314 312 310 308 308 308 309 309 310 311 313 311 313 311 308 308 311 312 315 313 311 313 310 303 300 297 293 291 288 286 284 282 278 275 272 269 267 264 261 259 259 260 260
311 308 308 311 311 311 312 316 318 317 318 317 317 313 317 314 315 314 317 314 310 309 305 301 298 295 293 293 292 291 287 284 282 281 278 275 271 267 265 262 261 259 258 256
312 318 317 315 313 314 313 314 316 317 315 315 316 316 322 318 314 312 311 310 307 304 301 299 296 296 296 295 292 289 288 287 285 282 279 276 274 272 268 265 262 261 259 257
312 311 311 313 313 314 315 315 316 316 320 325 323 319 322 312 311 310 307 303 304 301 300 297 297 297 295 294 292 292 291 288 285 283 281 279 275 272 269 265 263 262 261 258
311 314 314 313 315 316 317 318 321 324 322 321 319 314 314 312 311 306 303 306 302 303 302 301 300 300 300 298 297 297 296 294 292 289 286 283 279 275 270 265 261 258 257 254
316 317 320 322 319 320 323 327 326 323 320 318 324 323 321 306 304 300 304 303 304 306 304 308 309 308 306 305 303 301 299 299 297 295 294 291 284 279 268 257 252 252 248 248
318 320 325 326 326 330 329 329 326 321 320 321 324 317 306 299 293 293 302 302 301 304 307 310 311 309 307 307 307 307 306 303 302 300 296 292 294 279 260 245 243 254 252 256
325 326 327 327 327 330 331 328 322 320 318 315 316 314 316 290 298 294 299 303 308 312 315 315 310 308 310 313 313 311 306 302 300 298 297 292 295 282 254 242 248 264 261 260
327 327 330 329 328 324 323 324 324 324 317 314 312 315 310 306 300 305 307 309 315 319 317 310 308 313 317 318 317 316 310 303 303 301 295 294 296 271 250 248 265 259 257 253
321 323 323 324 322 326 329 328 325 318 319 312 311 309 314 302 303 302 303 310 313 317 313 309 309 315 320 322 323 322 312 304 306 304 297 296 292 262 250 256 273 267 265 243
314 317 319 319 323 327 327 326 320 317 316 316 307 316 316 309 306 305 309 309 313 311 312 307 310 320 323 324 326 324 319 305 305 305 297 297 294 264 256 269 271 279 230 199
308 317 318 322 325 325 325 326 320 319 315 315 315 315 319 310 306 307 307 307 307 309 303 309 316 322 324 323 327 323 318 308 299 301 296 292 288 268 264 278 293 190 208 213
313 316 320 324 324 324 325 321 320 318 315 317 317 313 310 309 301 310 304 314 313 311 309 312 319 324 323 324 324 319 317 306 293 291 288 280 275 265 270 302 264 182 193 197
315 317 323 325 325 324 320 319 319 322 319 315 313 309 296 291 301 301 302 312 313 315 309 315 322 321 323 324 321 314 313 304 281 275 273 266 258 249 301 286 201 171 176 179
318 321 321 324 324 321 319 321 322 318 318 314 311 305 294 285 297 303 298 306 307 312 312 320 320 321 326 325 321 316 312 303 275 255 260 251 241 249 301 180 160 154 159 178
319 319 322 325 324 322 322 318 318 321 324 313 306 299 303 291 291 303 307 309 311 309 317 317 319 325 325 323 321 323 314 299 267 243 235 232 210 237 145 143 162 166 179 179
320 321 324 323 325 323 322 322 324 324 331 317 312 307 304 309 303 300 308 307 310 316 315 318 325 326 326 326 327 325 315 301 250 233 213 209 194 161 137 151 171 163 167 156
322 325 326 324 321 321 325 324 330 328 335 324 306 293 304 308 306 303 311 309 308 310 320 324 325 325 328 331 333 339 322 300 231 190 187 178 180 136 142 160 168 159 153 133
325 327 323 321 319 324 327 330 337 333 329 314 306 297 270 299 318 320 315 310 316 323 325 324 325 327 337 348 339 336 326 278 189 167 177 173 160 139 147 146 139 145 142 142
326 324 321 320 322 332 327 330 333 334 331 328 324 305 286 308 318 319 321 320 324 325 326 327 328 335 330 332 337 332 326 189 162 164 176 171 148 139 139 138 139 146 150 156
322 322 319 322 327 326 325 331 336 332 336 338 0 328 320 325 324 324 325 324 328 329 332 331 335 338 337 324 321 312 294 168 156 162 163 151 143 144 141 135 138 145 151 169
322 321 319 322 326 327 328 329 335 333 348 32 13 340 329 331 329 331 329 332 332 337 337 343 339 336 333 322 312 290 166 155 151 160 155 145 147 146 141 133 134 150 164 123
320 319 320 328 326 332 322 325 333 354 45 11 354 338 335 340 335 335 338 336 342 343 349 347 340 337 345 341 19 151 150 145 156 158 144 146 147 146 142 139 141 135 163 115
319 319 320 330 328 328 334 333 338 56 18 3 344 340 342 342 342 343 341 343 350 357 354 349 354 4 10 37 121 137 140 148 155 147 146 149 152 152 149 143 144 157 130 130
Height
5845 5844 5842 5840 5838 5836 5833 5831 5827 5824 5820 5816 5813 5809 5802 5795 5789 5782 5774 5765 5758 5748 5740 5733 5727 5719 5712 5702 5695 5688 5684 5682 5679 5677 5676 5673 5672 5672 5672 5671 5672 5672 5674 5677
5843 5841 5839 5837 5835 5832 5829 5826 5821 5817 5813 5806 5801 5798 5788 5779 5769 5761 5752 5745 5737 5728 5718 5708 5700 5688 5681 5675 5670 5662 5656 5651 5648 5646 5644 5645 5645 5646 5646 5646 5647 5649 5652 5655
5838 5836 5834 5831 5828 5825 5819 5817 5812 5806 5802 5796 5788 5785 5768 5765 5752 5742 5734 5725 5712 5701 5693 5681 5672 5663 5654 5646 5641 5635 5630 5625 5620 5618 5616 5616 5617 5619 5620 5623 5624 5625 5629 5632
5836 5832 5829 5826 5823 5819 5814 5811 5806 5798 5792 5785 5776 5772 5760 5741 5730 5722 5712 5705 5694 5682 5670 5659 5649 5640 5632 5624 5617 5612 5606 5602 5598 5595 5593 5591 5590 5594 5595 5597 5600 5603 5604 5608
5832 5829 5826 5822 5818 5813 5809 5804 5798 5791 5781 5773 5762 5758 5755 5725 5707 5693 5690 5681 5669 5655 5645 5636 5628 5620 5613 5606 5599 5594 5588 5583 5580 5577 5572 5571 5571 5571 5573 5575 5577 5579 5585 5587
5827 5824 5821 5816 5811 5806 5800 5795 5789 5779 5768 5762 5747 5740 5742 5723 5706 5684 5663 5651 5641 5636 5627 5618 5612 5604 5598 5591 5582 5578 5574 5569 5565 5561 5557 5552 5552 5554 5555 5556 5559 5563 5566 5569
5821 5819 5816 5809 5804 5796 5789 5782 5773 5771 5760 5760 5742 5724 5723 5686 5672 5662 5647 5639 5629 5620 5609 5601 5596 5590 5584 5576 5570 5566 5561 5556 5551 5547 5543 5540 5537 5537 5538 5541 5544 5547 5550 5553
5816 5810 5805 5799 5793 5786 5777 5769 5758 5748 5744 5736 5736 5716 5692 5663 5651 5636 5630 5620 5612 5604 5595 5587 5582 5576 5571 5565 5561 5555 5551 5547 5542 5538 5534 5531 5526 5524 5525 5527 5531 5536 5538 5540
5809 5804 5797 5791 5783 5776 5765 5756 5747 5730 5721 5700 5699 5690 5684 5655 5636 5620 5613 5608 5600 5594 5585 5580 5574 5568 5563 5558 5553 5548 5543 5538 5533 5529 5525 5522 5518 5516 5515 5518 5522 5526 5529 5531
5800 5792 5787 5778 5769 5762 5753 5742 5728 5715 5691 5679 5671 5663 5650 5637 5626 5614 5606 5597 5587 5582 5576 5572 5567 5562 5557 5552 5546 5540 5534 5529 5525 5520 5517 5514 5510 5508 5508 5511 5515 5518 5521 5522
5789 5782 5775 5765 5757 5749 5738 5723 5705 5694 5684 5663 5645 5644 5637 5624 5608 5599 5591 5584 5579 5573 5570 5566 5561 5556 5551 5545 5539 5533 5527 5522 5518 5513 5510 5506 5504 5502 5503 5506 5510 5511 5513 5514
5780 5772 5764 5754 5747 5735 5721 5704 5690 5670 5664 5655 5637 5621 5623 5610 5599 5590 5582 5577 5571 5567 5563 5560 5556 5551 5545 5539 5532 5526 5520 5515 5511 5507 5503 5500 5498 5497 5499 5503 5504 5504 5505 5508
5769 5759 5752 5742 5732 5721 5709 5694 5673 5657 5643 5634 5614 5607 5606 5596 5589 5582 5575 5570 5565 5561 5557 5554 5550 5545 5539 5532 5525 5518 5513 5509 5505 5501 5497 5495 5494 5494 5497 5499 5498 5499 5501 5506
5759 5752 5741 5731 5721 5702 5693 5684 5664 5644 5626 5616 5608 5593 5592 5586 5578 5575 5569 5564 5561 5556 5552 5548 5544 5539 5533 5525 5517 5510 5504 5501 5499 5495 5493 5492 5491 5493 5494 5495 5495 5497 5500 5505
5750 5743 5731 5719 5706 5692 5678 5662 5651 5632 5618 5604 5594 5586 5581 5576 5572 5568 5563 5559 5556 5552 5547 5543 5539 5533 5527 5518 5509 5504 5498 5493 5492 5490 5489 5488 5489 5492 5493 5493 5494 5498 5501 5505
5738 5728 5720 5707 5693 5674 5660 5647 5630 5614 5602 5593 5585 5579 5572 5570 5564 5562 5557 5554 5550 5546 5543 5538 5533 5527 5520 5511 5502 5497 5492 5487 5485 5485 5485 5484 5487 5490 5492 5492 5495 5500 5504 5508
5724 5714 5705 5698 5681 5662 5641 5625 5612 5605 5593 5579 5572 5567 5564 5561 5558 5556 5552 5549 5545 5541 5538 5532 5527 5521 5512 5503 5494 5490 5485 5480 5477 5478 5480 5483 5487 5490 5491 5493 5497 5502 5506 5510
5709 5700 5688 5679 5664 5653 5636 5618 5603 5590 5579 5570 5565 5559 5556 5552 5552 5552 5547 5544 5540 5537 5532 5527 5521 5513 5504 5495 5488 5482 5477 5473 5471 5473 5477 5482 5487 5490 5493 5496 5500 5506 5509 5513
5699 5686 5674 5659 5648 5632 5612 5595 5591 5576 5577 5562 5556 5553 5551 5549 5549 5549 5545 5540 5536 5532 5527 5520 5512 5504 5495 5488 5482 5477 5472 5468 5470 5474 5478 5483 5488 5491 5495 5499 5504 5510 5515 5517
5688 5675 5661 5642 5626 5613 5601 5590 5580 5571 5562 5557 5551 5547 5547 5547 5546 5546 5541 5537 5534 5528 5522 5513 5504 5496 5489 5483 5477 5473 5469 5466 5469 5474 5480 5486 5491 5495 5499 5503 5509 5515 5519 5521
5673 5661 5648 5627 5613 5607 5593 5582 5572 5566 5561 5552 5545 5542 5544 5545 5543 5540 5537 5535 5530 5523 5515 5506 5497 5489 5485 5480 5475 5472 5467 5466 5469 5475 5482 5489 5494 5499 5504 5508 5513 5518 5523 5526
5661 5647 5633 5619 5605 5597 5583 5582 5572 5562 5555 5547 5543 5541 5543 5543 5541 5538 5535 5531 5526 5518 5508 5499 5491 5485 5481 5478 5473 5470 5467 5467 5472 5478 5485 5492 5498 5503 5508 5512 5517 5523 5528 5530
5651 5638 5624 5611 5601 5591 5582 5573 5567 5560 5553 5548 5544 5544 5544 5542 5539 5537 5534 5529 5521 5511 5500 5493 5487 5483 5478 5474 5470 5468 5465 5469 5475 5481 5488 5496 5503 5508 5513 5519 5524 5530 5534 5538
5637 5623 5611 5603 5595 5587 5577 5572 5565 5558 5553 5550 5549 5547 5545 5542 5539 5536 5531 5523 5513 5504 5495 5489 5484 5479 5475 5468 5464 5464 5465 5472 5479 5485 5493 5502 5508 5513 5518 5524 5530 5535 5540 5544
5627 5614 5604 5594 5588 5586 5579 5569 5563 5559 5555 5553 5551 5548 5546 5543 5539 5534 5527 5518 5508 5498 5491 5486 5480 5475 5469 5463 5462 5465 5470 5477 5484 5491 5500 5507 5512 5518 5523 5529 5535 5541 5547 5551
5614 5606 5598 5593 5585 5578 5573 5567 5562 5560 5558 5555 5553 5550 5547 5543 5538 5532 5524 5513 5504 5497 5491 5485 5479 5474 5468 5466 5466 5471 5477 5484 5492 5499 5507 5512 5518 5523 5529 5535 5541 5546 5555 5562